GW3435 Weather Reports


Display with metric or nautical units.
time (UTC)temp
F
wind
direction
speed
MPH
gust
MPH
rain 1hr
in
rain 24hr
in
rain mn
in
humidity
%
barometer
mb
20260507113059 66 270 0.0 2.0 0.00 0.00 0.00 71 1016.8
20260507112023 67 332 1.0 3.0 0.00 0.00 0.00 70 1016.8
20260507111018 65 315 0.0 1.0 0.00 0.00 0.00 70 1016.9
20260507110033 66 347 1.0 2.0 0.00 0.00 0.00 74 1016.9
20260507105027 66 37 1.0 2.0 0.00 0.00 0.00 74 1016.8
20260507104035 66 40 0.0 1.0 0.00 0.00 0.00 73 1016.7
20260507103036 65 15 0.0 2.0 0.00 0.00 0.00 73 1016.5
20260507102021 65 62 1.0 1.0 0.00 0.00 0.00 72 1016.6
20260507101520 65 46 0.0 2.0 0.00 0.00 0.00 72 1016.6
20260507100534 64 52 2.0 3.0 0.00 0.00 0.00 71 1016.4
20260507095530 64 39 0.0 2.0 0.00 0.00 0.00 70 1016.4
20260507094526 64 52 2.0 3.0 0.00 0.00 0.00 71 1016.3
20260507093521 65 59 1.0 3.0 0.00 0.00 0.00 72 1016.3
20260507092516 65 42 2.0 3.0 0.00 0.00 0.00 70 1016.3
20260507091552 66 45 2.0 6.0 0.00 0.00 0.00 65 1016.0
20260507090527 65 50 3.0 8.0 0.00 0.00 0.00 65 1016.0
20260507085542 65 48 4.0 8.0 0.00 0.00 0.00 68 1016.0
20260507084538 65 45 2.0 6.0 0.00 0.00 0.00 67 1015.9
20260507083534 65 41 5.0 8.0 0.00 0.00 0.00 70 1015.7
20260507082531 64 34 8.0 11.0 0.00 0.00 0.00 71 1015.7
20260507081545 64 43 5.0 9.0 0.00 0.00 0.00 70 1015.6
20260507080520 64 46 7.0 11.0 0.00 0.00 0.00 72 1015.6
20260507075536 65 48 7.0 10.0 0.00 0.00 0.00 70 1015.5
20260507074551 64 47 5.0 9.0 0.00 0.00 0.00 73 1015.6
20260507073526 64 38 7.0 11.0 0.00 0.00 0.00 73 1015.6
20260507072521 65 55 5.0 9.0 0.00 0.00 0.00 72 1015.5
20260507071535 63 65 3.0 6.0 0.00 0.00 0.00 74 1015.4
20260507071018 63 38 6.0 9.0 0.00 0.00 0.00 74 1015.5
20260507070026 62 41 6.0 9.0 0.00 0.00 0.00 77 1015.5
20260507065021 62 50 4.0 8.0 0.00 0.00 0.00 77 1015.7
20260507064017 62 43 2.0 4.0 0.00 0.00 0.00 75 1015.7
20260507063033 62 35 1.0 6.0 0.00 0.00 0.00 75 1015.5
20260507062029 62 26 1.0 4.0 0.00 0.00 0.00 75 1015.5
20260507061024 62 46 1.0 3.0 0.00 0.00 0.00 76 1015.4
20260507060020 62 46 2.0 4.0 0.00 0.00 0.00 77 1015.5
20260507055016 62 42 2.0 3.0 0.00 0.00 0.00 76 1015.4
20260507054032 62 21 0.0 1.0 0.00 0.00 0.00 76 1015.5
20260507053048 60 272 0.0 1.0 0.00 0.00 0.00 79 1015.4
20260507052044 61 232 0.0 0.0 0.00 0.00 0.00 81 1015.4
20260507051019 59 230 0.0 0.0 0.00 0.00 0.00 85 1015.4
20260507050056 59 214 0.0 0.0 0.00 0.00 0.00 89 1015.4
20260507045032 56 214 0.0 0.0 0.00 0.00 0.00 90 1015.3
20260507044047 56 214 0.0 0.0 0.00 0.00 0.00 91 1015.1
20260507043023 55 214 0.0 0.0 0.00 0.00 0.00 91 1015.0
20260507042019 55 209 0.0 0.0 0.00 0.00 0.00 91 1015.1
20260507041035 55 209 0.0 0.0 0.00 0.00 0.00 91 1015.1
20260507040030 54 210 0.0 0.0 0.00 0.00 0.00 92 1014.9
20260507035026 53 208 0.0 0.0 0.00 0.00 0.00 92 1014.8
20260507034021 53 208 0.0 0.0 0.00 0.00 0.00 92 1014.7
20260507033017 53 209 0.0 0.0 0.00 0.00 0.00 92 1014.6
20260507032033 53 208 0.0 0.0 0.00 0.00 0.00 92 1014.4
20260507031029 53 242 0.0 0.0 0.00 0.00 0.00 92 1014.6
20260507030025 53 243 0.0 0.0 0.00 0.00 0.00 92 1014.5
20260507025021 53 133 0.0 0.0 0.00 0.00 0.00 91 1014.3
20260507024017 53 133 0.0 0.0 0.00 0.00 0.00 91 1014.1
20260507023033 53 133 0.0 0.0 0.00 0.00 0.00 91 1014.2
20260507022029 53 133 0.0 0.0 0.00 0.00 0.00 91 1014.1
20260507021024 53 133 0.0 0.0 0.00 0.00 0.00 91 1014.1
20260507020020 54 133 0.0 0.0 0.00 0.00 0.00 91 1013.9
20260507015036 54 133 0.0 0.0 0.00 0.00 0.00 91 1013.9
20260507014032 54 133 0.0 0.0 0.00 0.00 0.00 91 1013.9
20260507013028 54 133 0.0 0.0 0.00 0.00 0.00 90 1013.8
20260507012024 54 133 0.0 0.0 0.00 0.00 0.00 90 1013.9
20260507011020 54 133 0.0 0.0 0.00 0.00 0.00 90 1013.8
20260507010036 55 133 0.0 1.0 0.00 0.00 0.00 91 1013.9
20260507005032 54 188 0.0 0.0 0.00 0.00 0.00 91 1014.0
20260507004027 55 187 0.0 0.0 0.00 0.00 0.00 91 1014.0
20260507003023 55 187 0.0 0.0 0.00 0.00 0.00 90 1014.0
20260507002019 55 188 0.0 0.0 0.00 0.00 0.00 90 1014.1
20260507001035 55 188 0.0 0.0 0.00 0.00 0.00 90 1014.1
20260507000052 55 188 0.0 0.0 0.00 0.00 0.00 90 1014.2
20260506235027 55 188 0.0 0.0 0.00 0.00 0.00 90 1014.4
20260506234023 55 214 0.0 0.0 0.00 0.00 0.00 90 1014.3
20260506233019 55 214 0.0 0.0 0.00 0.00 0.00 90 1014.4
20260506232054 55 216 0.0 0.0 0.00 0.00 0.00 89 1014.5
20260506231525 55 216 0.0 0.0 0.00 0.00 0.00 89 1014.5
20260506230519 55 216 0.0 0.0 0.00 0.00 0.00 89 1014.5
20260506225535 55 216 0.0 0.0 0.00 0.00 0.00 89 1014.5
20260506224531 55 217 0.0 0.0 0.00 0.00 0.00 89 1014.6
20260506223527 56 256 0.0 0.0 0.00 0.00 0.00 89 1014.6
20260506222543 56 256 0.0 0.0 0.00 0.00 0.00 90 1014.5
20260506221559 56 256 0.0 0.0 0.00 0.00 0.00 89 1014.6
20260506220533 56 256 0.0 0.0 0.00 0.00 0.00 89 1014.6
20260506215549 56 256 0.0 0.0 0.00 0.00 0.00 89 1014.6
20260506214524 56 256 0.0 0.0 0.00 0.00 0.00 88 1014.6
20260506213520 56 256 0.0 0.0 0.00 0.00 0.00 88 1014.4
20260506212531 56 256 0.0 0.0 0.00 0.00 0.00 88 1014.5
20260506211526 57 256 0.0 0.0 0.00 0.00 0.00 88 1014.5
20260506210522 56 256 0.0 0.0 0.00 0.00 0.00 88 1014.5
20260506205518 56 256 0.0 0.0 0.00 0.00 0.00 88 1014.5
20260506204534 56 256 0.0 0.0 0.00 0.00 0.00 88 1014.5
20260506203529 57 256 0.0 0.0 0.00 0.00 0.00 87 1014.5
20260506202525 57 256 0.0 0.0 0.00 0.00 0.00 88 1014.4
20260506201520 57 256 0.0 0.0 0.00 0.00 0.00 88 1014.3
20260506200516 57 256 0.0 0.0 0.00 0.00 0.00 87 1014.3
20260506195553 57 256 0.0 0.0 0.00 0.00 0.00 87 1014.2
20260506194528 57 256 0.0 0.0 0.00 0.00 0.00 87 1014.2
20260506193604 58 256 0.0 0.0 0.00 0.00 0.00 87 1014.1
20260506192600 58 256 0.0 0.0 0.00 0.00 0.00 86 1014.1
20260506191555 58 256 0.0 0.0 0.00 0.00 0.00 86 1014.1
20260506190531 58 256 0.0 0.0 0.00 0.00 0.00 85 1014.1
20260506185547 59 256 0.0 0.0 0.00 0.00 0.00 86 1014.0
20260506184523 59 256 0.0 0.0 0.00 0.00 0.00 85 1013.9
20260506183559 59 256 0.0 0.0 0.00 0.00 0.00 85 1013.8
20260506182535 60 256 0.0 0.0 0.00 0.00 0.00 84 1013.7
20260506181530 60 257 0.0 0.0 0.00 0.00 0.00 84 1013.6
20260506180545 60 256 0.0 0.0 0.00 0.00 0.00 83 1013.3
20260506175542 61 257 0.0 0.0 0.00 0.00 0.00 83 1013.3
20260506174517 62 257 0.0 0.0 0.00 0.00 0.00 83 1013.2
20260506173533 63 257 0.0 0.0 0.00 0.00 0.00 82 1013.3
20260506172528 64 257 0.0 0.0 0.00 0.00 0.00 81 1013.1
20260506171524 65 300 1.0 2.0 0.00 0.00 0.00 80 1013.1
20260506170520 66 333 0.0 3.0 0.00 0.00 0.00 79 1013.0
20260506165536 66 13 1.0 3.0 0.00 0.00 0.00 78 1013.0
20260506164531 66 22 1.0 4.0 0.00 0.00 0.00 77 1013.0
20260506163527 67 27 1.0 3.0 0.00 0.00 0.00 76 1013.0
20260506162523 67 22 2.0 3.0 0.00 0.00 0.00 75 1013.0
20260506161518 66 35 2.0 4.0 0.00 0.00 0.00 75 1012.7
20260506160535 67 34 1.0 4.0 0.00 0.00 0.00 73 1012.9
20260506155530 68 24 2.0 4.0 0.00 0.00 0.00 71 1012.9
20260506154526 67 46 1.0 4.0 0.00 0.00 0.00 70 1013.0
20260506153542 68 21 1.0 3.0 0.00 0.00 0.00 68 1012.9
20260506152558 66 34 3.0 6.0 0.00 0.00 0.00 70 1013.0
20260506151534 67 34 3.0 7.0 0.00 0.00 0.00 68 1013.0
20260506150529 66 47 3.0 6.0 0.00 0.00 0.00 69 1013.0
20260506145525 66 36 4.0 7.0 0.00 0.00 0.00 69 1013.0
20260506144541 66 41 3.0 4.0 0.00 0.00 0.00 70 1013.0
20260506143521 66 43 3.0 6.0 0.00 0.00 0.00 71 1013.0
20260506142542 66 45 3.0 6.0 0.00 0.00 0.00 70 1012.9
20260506141520 67 41 2.0 4.0 0.00 0.00 0.00 70 1013.1
20260506140535 67 47 2.0 4.0 0.00 0.00 0.00 69 1013.1
20260506135530 66 48 3.0 6.0 0.00 0.00 0.00 71 1013.0
20260506134525 66 42 4.0 7.0 0.00 0.00 0.00 70 1013.0
20260506133521 66 47 3.0 8.0 0.00 0.00 0.00 70 1013.1
20260506132517 67 43 3.0 6.0 0.00 0.00 0.00 68 1013.2
20260506131533 67 35 2.0 6.0 0.00 0.00 0.00 68 1013.3
20260506130529 67 31 3.0 6.0 0.00 0.00 0.00 69 1013.3
20260506125525 66 42 4.0 8.0 0.00 0.00 0.00 71 1013.5
20260506124521 65 48 3.0 6.0 0.00 0.00 0.00 72 1013.5
20260506123548 64 44 5.0 8.0 0.00 0.00 0.00 75 1013.7
20260506122517 65 48 5.0 8.0 0.00 0.00 0.00 74 1013.7
20260506121532 65 39 5.0 8.0 0.00 0.00 0.00 73 1013.8
20260506120528 65 53 3.0 7.0 0.00 0.00 0.00 72 1013.9
20260506115523 64 42 5.0 10.0 0.00 0.00 0.00 74 1013.9
20260506114518 65 39 5.0 9.0 0.00 0.00 0.00 74 1014.1
20260506113532 67 42 4.0 7.0 0.00 0.00 0.00 70 1014.2